Vorticity
11 11 15 18 13 11 10 9 9 9 9 11 10 11 10 10 17 13 7 6 12 10 7 11 6 6 4 2 22 -21 14 30 -4 -0 23 29 8 6
10 9 7 11 16 15 11 7 10 5 6 13 14 15 9 14 16 14 18 12 8 6 6 13 6 -5 -3 3 7 5 13 28 8 2 4 17 18 4
11 7 6 9 9 20 11 19 10 23 23 23 19 11 12 12 15 17 14 22 15 14 18 12 13 27 23 9 27 14 36 -16 11 14 13 -17 4 -1
11 7 6 5 6 6 20 10 13 1 3 9 13 1 7 16 12 15 20 17 18 16 12 16 13 10 0 14 11 8 10 12 10 9 5 12 2 17
10 9 6 4 5 9 11 16 17 13 2 8 2 5 14 10 10 14 11 13 8 13 7 4 11 14 2 8 16 16 19 6 15 12 -2 9 3 11
10 11 8 4 6 14 14 16 16 11 1 5 2 11 7 14 10 10 4 29 26 0 8 19 5 11 15 7 10 7 19 5 8 5 9 -1 -16 15
10 12 9 6 7 15 18 16 13 20 9 13 17 9 7 12 17 15 12 10 13 35 29 15 27 -1 13 21 -3 -2 5 -11 5 -5 -4 3 6 21
11 14 9 9 16 11 15 18 32 22 -3 8 6 10 13 15 1 12 8 16 13 5 16 19 41 23 2 19 21 28 14 14 18 21 9 27 22 11
10 10 8 10 15 14 21 18 15 13 9 7 7 17 2 13 5 10 11 30 19 7 13 28 26 27 24 31 13 4 10 11 19 22 27 17 -0 13
11 10 10 10 12 23 20 26 18 16 2 3 15 -8 12 17 29 20 20 17 -3 -4 16 3 9 5 15 4 10 14 7 3 17 2 19 12 16 2
11 10 10 12 8 2 15 13 21 15 16 14 14 13 2 2 10 3 20 7 5 7 9 1 14 5 7 8 8 24 15 32 22 17 15 6 -2 20
10 10 10 7 6 4 12 8 8 15 8 18 42 19 24 8 42 10 17 0 5 2 14 29 1 8 4 15 10 6 -9 24 21 39 22 22 16 9
11 10 10 8 10 1 -4 7 3 16 13 14 14 20 17 8 18 17 11 31 14 21 14 17 27 1 18 15 6 1 -11 15 32 7 3 -2 14 22
12 10 10 9 10 12 7 4 0 11 15 11 21 16 18 33 27 22 29 3 16 21 13 25 8 6 -8 25 18 23 24 37 14 30 10 31 27 29
11 11 10 10 9 11 11 9 13 12 10 8 13 3 6 9 -3 3 9 13 8 9 16 37 30 28 38 26 23 20 18 15 13 7 14 26 27 -6
11 11 11 10 10 10 11 11 9 9 8 8 8 6 15 7 7 11 19 13 21 20 16 10 3 4 7 6 7 8 12 8 6 5 0 -2 5 9
6 6 12 10 10 10 11 12 11 9 8 9 9 9 9 9 10 10 10 11 10 10 9 9 17 11 13 11 10 11 9 7 6 7 8 7 7 7
3 4 14 11 11 11 10 12 13 12 10 8 9 9 8 8 8 8 7 7 7 7 8 8 8 7 7 7 7 7 7 7 7 7 7 7 7 8
10 3 10 12 12 11 10 11 12 12 11 11 8 8 9 8 8 9 9 9 9 8 7 7 6 7 8 7 8 8 8 9 9 10 9 8 7 8
19 12 3 11 12 12 12 11 11 12 12 11 11 10 9 10 10 10 10 9 8 7 7 7 8 8 8 8 9 8 9 8 8 8 9 9 9 10
17 15 5 7 13 12 13 13 12 12 11 11 11 11 12 10 9 9 9 10 10 11 11 12 10 10 10 10 11 10 10 10 11 11 11 10 10 11
12 14 8 6 8 13 14 15 14 13 13 12 11 11 11 11 10 10 10 10 10 10 9 9 9 8 9 9 9 10 9 8 7 8 9 9 10 12
11 11 12 12 7 10 14 14 12 12 12 11 11 11 10 10 10 10 10 10 10 10 10 11 11 10 9 7 7 8 9 10 12 13 13 10 9 8
Height
3025 3024 3021 3020 3020 3019 3018 3018 3016 3012 3011 3015 3016 3024 3025 3026 3027 3029 3030 3031 3034 3037 3040 3042 3044 3046 3048 3052 3055 3057 3055 3060 3062 3063 3067 3065 3065 3070
3018 3016 3015 3013 3011 3009 3008 3008 3007 3004 2998 3004 3006 3010 3014 3014 3015 3016 3017 3019 3021 3023 3027 3030 3033 3035 3037 3039 3042 3045 3047 3049 3051 3053 3055 3056 3058 3061
3011 3008 3006 3005 3002 3000 2999 2998 2996 2996 2991 2993 2995 2998 3000 3002 3004 3005 3004 3005 3007 3011 3014 3018 3020 3021 3024 3026 3029 3033 3036 3039 3041 3043 3045 3048 3048 3050
3001 2999 2998 2994 2992 2991 2989 2988 2988 2989 2986 2984 2987 2986 2989 2991 2991 2992 2993 2993 2995 2999 3003 3005 3008 3010 3012 3014 3018 3021 3024 3027 3030 3031 3033 3037 3038 3040
2990 2989 2988 2986 2985 2983 2980 2978 2978 2978 2978 2976 2976 2978 2978 2981 2981 2981 2982 2982 2983 2986 2989 2992 2994 2997 3000 3003 3005 3008 3012 3015 3018 3021 3024 3026 3028 3030
2980 2979 2979 2977 2975 2973 2971 2969 2968 2968 2968 2968 2967 2969 2970 2972 2970 2971 2971 2969 2971 2974 2974 2978 2981 2983 2986 2991 2995 2997 3001 3003 3007 3011 3013 3015 3016 3018
2971 2970 2969 2967 2965 2963 2960 2959 2957 2957 2960 2959 2959 2961 2961 2962 2962 2962 2961 2961 2962 2961 2963 2962 2967 2970 2972 2975 2980 2985 2989 2993 2996 2999 3002 3003 3005 3006
2963 2963 2960 2958 2956 2953 2950 2947 2946 2948 2949 2951 2951 2952 2952 2954 2954 2954 2953 2953 2951 2953 2953 2954 2955 2957 2961 2964 2969 2975 2979 2982 2984 2986 2987 2991 2992 2995
2954 2953 2952 2949 2946 2943 2940 2938 2938 2940 2942 2944 2943 2943 2944 2945 2946 2946 2945 2945 2945 2945 2946 2945 2947 2949 2952 2955 2958 2964 2968 2971 2972 2973 2976 2979 2982 2984
2945 2944 2943 2941 2938 2935 2932 2931 2931 2933 2935 2935 2935 2935 2935 2936 2937 2937 2937 2937 2937 2939 2940 2941 2944 2945 2947 2949 2953 2955 2958 2961 2962 2963 2966 2968 2970 2971
2935 2935 2934 2933 2932 2930 2928 2925 2925 2926 2926 2926 2926 2926 2927 2928 2930 2930 2929 2929 2930 2933 2935 2936 2938 2940 2941 2943 2944 2946 2948 2950 2952 2953 2955 2958 2958 2958
2926 2926 2926 2926 2926 2924 2923 2922 2920 2920 2919 2918 2915 2916 2918 2919 2919 2920 2922 2923 2923 2925 2927 2929 2931 2933 2933 2935 2936 2938 2940 2942 2943 2943 2946 2948 2949 2950
2916 2917 2917 2918 2919 2918 2918 2917 2916 2914 2913 2912 2910 2910 2911 2911 2911 2912 2913 2914 2916 2917 2920 2921 2922 2924 2926 2927 2929 2930 2932 2934 2935 2937 2939 2940 2941 2943
2907 2908 2909 2909 2910 2911 2911 2911 2911 2909 2908 2908 2907 2907 2906 2906 2906 2907 2907 2909 2909 2911 2912 2914 2917 2918 2920 2920 2921 2922 2924 2926 2927 2930 2930 2931 2933 2935
2897 2898 2900 2901 2902 2903 2904 2905 2905 2905 2904 2904 2904 2904 2904 2904 2904 2904 2905 2905 2906 2906 2906 2908 2910 2912 2913 2914 2916 2918 2920 2922 2924 2926 2927 2929 2929 2931
2888 2889 2891 2893 2894 2895 2897 2897 2898 2899 2899 2898 2899 2900 2900 2900 2901 2901 2901 2902 2902 2902 2903 2905 2907 2908 2910 2912 2914 2915 2917 2918 2920 2921 2923 2925 2928 2930
2877 2880 2883 2885 2886 2888 2889 2890 2891 2892 2893 2893 2893 2895 2895 2896 2897 2898 2898 2899 2900 2900 2900 2902 2903 2905 2906 2908 2910 2911 2912 2913 2915 2917 2919 2920 2922 2924
2868 2872 2874 2876 2879 2880 2881 2883 2884 2885 2886 2887 2888 2889 2890 2891 2893 2894 2895 2895 2897 2897 2898 2899 2900 2901 2902 2904 2905 2906 2908 2909 2910 2912 2913 2915 2916 2917
2858 2861 2866 2868 2871 2873 2874 2876 2877 2879 2880 2882 2883 2883 2885 2887 2888 2889 2890 2891 2892 2893 2893 2894 2894 2895 2896 2897 2899 2900 2901 2902 2903 2904 2905 2907 2907 2908
2850 2852 2857 2860 2863 2865 2867 2868 2870 2872 2874 2876 2878 2879 2880 2881 2883 2884 2885 2886 2887 2888 2888 2888 2889 2889 2890 2891 2892 2893 2893 2893 2894 2894 2896 2896 2897 2897
2841 2845 2848 2852 2855 2857 2859 2861 2863 2865 2867 2869 2871 2873 2875 2875 2876 2877 2878 2880 2881 2882 2883 2883 2883 2883 2883 2883 2884 2885 2885 2885 2885 2885 2886 2886 2886 2886
2834 2838 2841 2844 2847 2850 2852 2855 2856 2858 2860 2862 2863 2865 2867 2869 2870 2871 2872 2874 2875 2875 2875 2876 2876 2877 2876 2876 2875 2875 2875 2875 2875 2875 2875 2875 2876 2877
2827 2831 2834 2837 2840 2843 2846 2849 2850 2852 2854 2856 2857 2858 2860 2861 2863 2864 2865 2866 2866 2867 2868 2869 2869 2869 2869 2869 2868 2868 2866 2865 2865 2865 2862 2862 2862 2863